Torna al catalogo

YAMAL 601

AttivoComunicazioniGEO
NORAD 44307·PAYLOAD·🇷🇺 Russia

Lanciato May 30, 2019 da Baikonur Cosmodrome

Loading…

TLE

AggiornatoSource: Space-Track

Epoca: Sep 14, 2026, 14:02 UTC

1 44307U 19031A   26257.58480772  .00000112  00000-0  00000-0 0  9999
2 44307   0.0138 158.1322 0002399   8.6508  86.3115  1.00272080 26826

Traccia YAMAL 601 in tempo reale con AllMySat

Download on the App Store